[[{"header":{"parameterUnit":"m.s-1","parameterCategory":1,"la1":30.2991,"la2":30.254,"lo1":-89.0895,"lo2":-89.0444,"dy":0.0017,"dx":0.0017,"nx":28,"ny":28,"refTime":"2025-02-03T03:00:00:Z","depth":0,"parameterNumber":2,"parameterNumberName":"U-component_of_WINDS"},"data":[0,0,0,0,0,0,0,0,0,0,0,0,0,0,0,0,0,0,0,0,0,0,0,0,0,0,0,0,0,0,0,0,0,0,0,0,0,0,0,0,0,0,0,0,0,0,0,0,0,0,0,0,0,0,0,0,0,0,-2.0369,-2.0369,0,-2.0439,-2.044,-2.044,-2.0441,-2.044,-2.0439,-2.0438,-2.0511,-2.0513,-2.0516,0,0,0,0,0,0,0,0,0,0,0,0,0,-2.0236,-2.0238,-2.0369,-2.0369,-2.037,-2.0439,-2.044,-2.0441,-2.0441,-2.044,-2.0438,-2.0437,-2.051,-2.0513,-2.0516,0,0,0,0,0,0,0,0,0,0,0,0,0,-2.0298,-2.0239,-2.0368,-2.0379,-2.038,-2.0438,-2.044,-2.0441,-2.0441,-2.044,-2.0438,-2.0437,-2.0509,-2.0513,-2.0517,-2.057,0,0,-2.0529,-2.0531,0,0,0,0,0,0,0,0,-2.0295,-2.0303,-2.0376,-2.0378,-2.038,-2.0429,-2.0419,-2.0484,-2.0441,-2.0418,-2.0438,-2.0436,-2.0485,-2.0491,-2.0507,-2.0573,-2.0576,-2.053,-2.0532,-2.0534,-2.0535,0,0,0,0,0,0,0,-2.0291,-2.03,-2.0396,-2.0377,-2.038,-2.038,-2.0387,-2.0432,-2.0458,-2.042,-2.042,-2.0428,-2.0485,-2.0503,-2.0509,-2.0577,-2.053,-2.0533,-2.0536,-2.0538,-2.069,-2.0692,0,0,0,0,0,0,-2.0284,-2.0297,-2.0394,-2.0398,-2.0333,-2.0384,-2.0392,-2.0415,-2.0458,-2.0463,-2.0429,-2.0428,-2.0496,-2.0504,-2.0511,-2.0575,-2.0534,-2.0538,-2.054,-2.0689,-2.0691,-2.0692,0,0,0,0,0,0,-2.0281,-2.0293,-2.0391,-2.0348,-2.036,-2.0387,-2.0413,-2.0417,-2.0434,-2.0465,-2.047,-2.0442,-2.0496,-2.0505,-2.0555,-2.0578,-2.054,-2.0544,-2.0687,-2.0689,-2.0691,-2.0704,0,0,0,0,0,0,-2.0277,-2.0292,-2.0312,-2.0348,-2.0363,-2.0434,-2.0415,-2.0419,-2.0442,-2.044,-2.0478,-2.0483,-2.0495,-2.0549,-2.0559,-2.0583,-2.0547,-2.0685,-2.0688,-2.0691,-2.0702,-2.0707,-2.0711,0,0,0,0,0,-2.0273,-2.0313,-2.0313,-2.0324,-2.0388,-2.0435,-2.0443,-2.0456,-2.0443,-2.0464,-2.0484,-2.0482,-2.0574,-2.0554,-2.0566,-2.0591,-2.0684,-2.0687,-2.0691,-2.07,-2.0706,-2.0711,0,0,0,0,0,0,-2.0278,-2.0318,-2.0318,-2.0371,-2.04,-2.0435,-2.0461,-2.0462,-2.0495,-2.0493,-2.0508,-2.0516,-2.0566,-2.0584,-2.056,-2.0644,-2.0627,-2.0633,-2.0631,-2.0636,-2.0641,-2.0635,-2.055,0,0,0,0,0,-2.0286,-2.032,-2.0353,-2.0397,-2.0411,-2.0434,-2.0455,-2.0462,-2.0492,-2.0504,-2.0528,-2.0557,-2.0593,-2.0616,-2.0651,-2.0705,-2.0713,-2.0729,-2.0733,-2.0737,-2.0741,-2.0771,-2.0778,-2.0704,-2.0704,-2.0704,0,0,-2.0302,-2.0328,-2.0348,-2.0399,-2.0422,-2.0457,-2.0444,-2.0482,-2.0508,-2.051,-2.0558,-2.0577,-2.0611,-2.0663,-2.0687,-2.0679,-2.0764,-2.0741,-2.0744,-2.0746,-2.0775,-2.0782,-2.0789,-2.0706,-2.0706,-2.0705,0,0,-2.0348,-2.0372,-2.041,-2.0433,-2.0468,-2.0483,-2.0493,-2.0528,-2.054,-2.0588,-2.0591,-2.0623,-2.0684,-2.0708,-2.0728,-2.0785,-2.0784,-2.0796,-2.0819,-2.0848,-2.0853,-2.0859,-2.0878,-2.0885,-2.08,-2.0801,-2.0801,0,-2.0363,-2.0416,-2.043,-2.0468,-2.049,-2.0494,-2.0533,-2.0555,-2.06,-2.0615,-2.0606,-2.0683,-2.0706,-2.0764,-2.0777,-2.0794,-2.0805,-2.0791,-2.0851,-2.0857,-2.0862,-2.088,-2.0888,-2.0802,-2.0801,-2.0801,-2.0801,0,-2.0433,-2.0469,-2.0497,-2.0539,-2.0564,-2.0603,-2.0623,-2.0647,-2.0653,-2.0669,-2.0718,-2.0746,-2.0786,-2.0801,-2.0807,-2.086,-2.0854,-2.0848,-2.0831,-2.087,-2.0887,-2.0895,-2.0803,-2.0803,-2.0802,-2.0802,0,0,-2.0483,-2.0533,-2.0543,-2.0562,-2.0601,-2.063,-2.0669,-2.0708,-2.0728,-2.0759,-2.0792,-2.0844,-2.0839,-2.0862,-2.0871,-2.0897,-2.0939,-2.0888,-2.0889,-2.0895,-2.0998,-2.1,-2.1008,-2.094,-2.0941,-2.0942,-2.0994,0,-2.0533,-2.0601,-2.0615,-2.0674,-2.0708,-2.0713,-2.0747,-2.0775,-2.0791,-2.0823,-2.0841,-2.0877,-2.0868,-2.0882,-2.0908,-2.0928,-2.0959,-2.0925,-2.097,-2.0971,-2.0959,-2.1018,-2.1021,-2.1069,-2.1001,-2.1002,-2.1003,0,-2.0599,-2.0631,-2.0694,-2.0728,-2.0743,-2.0773,-2.081,-2.084,-2.0872,-2.0883,-2.0909,-2.0915,-2.0956,-2.0939,-2.0995,-2.0971,-2.0991,-2.1004,-2.1006,-2.1009,-2.0988,-2.1021,-2.1084,-2.1091,-2.1015,-2.1014,-2.1013,0,-2.0628,-2.0687,-2.0732,-2.0749,-2.079,-2.0811,-2.083,-2.0861,-2.0883,-2.0916,-2.0931,-2.0968,-2.0988,-2.1017,-2.1034,-2.1019,-2.1089,-2.1073,-2.1098,-2.1098,-2.1111,-2.111,-2.1176,-2.1126,-2.1126,-2.1126,-2.1126,0,-2.0681,-2.0718,-2.0745,-2.0773,-2.0816,-2.0832,-2.0874,-2.0892,-2.092,-2.0951,-2.0958,-2.0988,-2.1009,-2.1041,-2.1055,-2.1099,-2.1109,-2.1118,-2.1121,-2.1116,-2.1115,-2.1128,-2.1125,-2.1128,-2.1128,-2.1127,-2.1127,0,-2.0719,-2.0739,-2.0788,-2.0824,-2.0834,-2.0864,-2.0894,-2.0921,-2.0938,-2.0978,-2.0988,-2.1015,-2.1054,-2.1074,-2.1122,-2.1131,-2.1181,-2.1183,-2.117,-2.117,-2.1194,-2.1191,-2.127,-2.1281,-2.1225,-2.1226,-2.1226,0,-2.0751,-2.078,-2.0819,-2.084,-2.0859,-2.0893,-2.0916,-2.0934,-2.0958,-2.0997,-2.1019,-2.1058,-2.109,-2.1152,-2.1176,-2.1213,-2.1215,-2.124,-2.122,-2.1215,-2.1214,-2.1211,-2.1214,-2.1243,-2.1243,-2.1244,-2.1244,0,-2.0804,-2.0813,-2.0845,-2.0881,-2.0909,-2.0938,-2.0967,-2.0985,-2.1007,-2.1034,-2.1073,-2.1098,-2.1147,-2.1186,-2.1225,-2.1245,-2.1248,-2.1251,-2.1258,-2.1253,-2.1244,-2.1248,-2.1177,-2.1248,-2.1248,-2.1247,-2.1247,-2.1247,-2.0839,-2.0865,-2.0896,-2.0933,-2.0956,-2.0984,-2.1011,-2.1031,-2.1064,-2.1105,-2.1114,-2.1156,-2.1188,-2.124,-2.1261,-2.1294,-2.1289,-2.13,-2.1303,-2.1305,-2.1305,-2.124,-2.1302,-2.1302,-2.1302,-2.1302,-2.1302,0,-2.0892,-2.0912,-2.0946,-2.0986,-2.1014,-2.1016,-2.1048,-2.1072,-2.1108,-2.1138,-2.1169,-2.1214,-2.1252,-2.1279,-2.1318,-2.1339,-2.1342,-2.1348,-2.1346,-2.135,-2.1309,-2.1297,-2.1346,-2.1346,-2.1346,-2.1346,-2.1346,-2.1346,-2.0922,-2.0966,-2.0978,-2.1034,-2.1054,-2.1094,-2.1113,-2.1138,-2.1162,-2.1212,-2.1243,-2.126,-2.1289,-2.133,-2.1364,-2.1372,-2.1385,-2.1391,-2.1398,-2.1358,-2.1353,-2.1349,-2.1338,-2.1394,-2.1394,-2.1437,-2.1438,-2.1438]},{"header":{"parameterUnit":"m.s-1","parameterCategory":1,"la1":30.2991,"la2":30.254,"lo1":-89.0895,"lo2":-89.0444,"dy":0.0017,"dx":0.0017,"nx":28,"ny":28,"refTime":"2025-02-03T03:00:00:Z","depth":0,"parameterNumber":3,"parameterNumberName":"V-component_of_WINDS"},"data":[0,0,0,0,0,0,0,0,0,0,0,0,0,0,0,0,0,0,0,0,0,0,0,0,0,0,0,0,0,0,0,0,0,0,0,0,0,0,0,0,0,0,0,0,0,0,0,0,0,0,0,0,0,0,0,0,0,0,0.4102,0.4103,0,0.4257,0.4259,0.426,0.4339,0.4339,0.4339,0.4339,0.4501,0.4505,0.4509,0,0,0,0,0,0,0,0,0,0,0,0,0,0.3877,0.3881,0.4101,0.4103,0.4105,0.4257,0.4259,0.4261,0.4339,0.4339,0.4339,0.4339,0.45,0.4505,0.451,0,0,0,0,0,0,0,0,0,0,0,0,0,0.3998,0.3882,0.4101,0.4162,0.4169,0.4256,0.4259,0.4261,0.4339,0.4339,0.4339,0.4339,0.4498,0.4504,0.451,0.4549,0,0,0.453,0.4533,0,0,0,0,0,0,0,0,0.3991,0.4006,0.4151,0.4158,0.4166,0.4278,0.4239,0.4358,0.4339,0.4274,0.4339,0.4339,0.4427,0.4439,0.4469,0.4557,0.4564,0.4531,0.4535,0.4537,0.4539,0,0,0,0,0,0,0,0.3982,0.4,0.4163,0.4153,0.4163,0.4184,0.4201,0.4262,0.4349,0.428,0.4286,0.4303,0.4431,0.4462,0.4473,0.4566,0.4531,0.4536,0.454,0.4543,0.4697,0.4697,0,0,0,0,0,0,0.3963,0.3992,0.4158,0.4168,0.4077,0.4188,0.4207,0.4242,0.4348,0.4364,0.4303,0.4306,0.4451,0.4465,0.4479,0.4533,0.4537,0.4543,0.4547,0.4696,0.4697,0.4697,0,0,0,0,0,0,0.3958,0.3977,0.4152,0.4082,0.4105,0.4191,0.4231,0.4245,0.4276,0.4366,0.4382,0.4318,0.4452,0.447,0.4532,0.4539,0.4546,0.4552,0.4696,0.4696,0.4697,0.4639,0,0,0,0,0,0,0.3951,0.3975,0.3989,0.4081,0.4109,0.42,0.4231,0.4248,0.4287,0.4293,0.4384,0.44,0.4453,0.4521,0.4538,0.4548,0.4557,0.4696,0.4696,0.4697,0.4641,0.4638,0.4635,0,0,0,0,0,0.3943,0.3968,0.399,0.4009,0.4128,0.4201,0.4217,0.4277,0.4287,0.4303,0.4361,0.4397,0.4536,0.4527,0.4546,0.4559,0.4696,0.4696,0.4697,0.4642,0.4638,0.4635,0,0,0,0,0,0,0.3875,0.3981,0.4007,0.4061,0.4121,0.4214,0.4236,0.427,0.433,0.4333,0.4406,0.4426,0.4481,0.4526,0.4515,0.4603,0.4619,0.4624,0.4571,0.4568,0.4565,0.4554,0.4562,0,0,0,0,0,0.3867,0.3915,0.4005,0.4044,0.4073,0.4149,0.4183,0.4224,0.429,0.4316,0.4378,0.4441,0.45,0.4537,0.4595,0.4648,0.467,0.4666,0.4663,0.466,0.4663,0.4696,0.4696,0.4699,0.4698,0.4698,0,0,0.3849,0.3913,0.3939,0.4032,0.4084,0.4134,0.417,0.4221,0.426,0.4324,0.4386,0.4434,0.451,0.4567,0.4596,0.4607,0.4667,0.4661,0.4658,0.4663,0.4697,0.4696,0.4696,0.4699,0.4699,0.4699,0,0,0.3844,0.3896,0.3935,0.3986,0.4063,0.4114,0.4123,0.4211,0.4245,0.4308,0.4358,0.4405,0.4503,0.4556,0.4595,0.4611,0.4646,0.4628,0.4612,0.4643,0.4643,0.4643,0.465,0.4652,0.463,0.463,0.463,0,0.3813,0.3889,0.3951,0.4,0.404,0.41,0.4142,0.4188,0.4281,0.4308,0.4319,0.4444,0.4499,0.4571,0.4575,0.4604,0.4619,0.4618,0.4638,0.4639,0.464,0.4647,0.465,0.4628,0.4628,0.4628,0.4628,0,0.3848,0.39,0.3923,0.401,0.4053,0.4097,0.4168,0.4205,0.4242,0.4292,0.4357,0.4425,0.4499,0.4519,0.4557,0.4597,0.4601,0.4624,0.4642,0.4636,0.4644,0.4647,0.4624,0.4625,0.4625,0.4626,0,0,0.3803,0.3925,0.3932,0.3973,0.4063,0.4106,0.4154,0.4225,0.4256,0.4318,0.4362,0.4444,0.4466,0.4511,0.4555,0.4582,0.4592,0.4602,0.4605,0.4598,0.4642,0.4625,0.4627,0.4615,0.4616,0.4617,0.4636,0,0.3811,0.3899,0.3957,0.4023,0.4073,0.4131,0.4173,0.4234,0.4282,0.4333,0.4387,0.4445,0.4468,0.4496,0.4525,0.4584,0.4601,0.4583,0.4658,0.466,0.4638,0.4631,0.4613,0.4627,0.4639,0.464,0.464,0,0.3832,0.3891,0.3962,0.4047,0.4071,0.4107,0.4179,0.4226,0.4297,0.433,0.438,0.4425,0.4481,0.4493,0.4571,0.4558,0.4592,0.4625,0.4628,0.4638,0.465,0.4642,0.4633,0.4636,0.4646,0.4645,0.4645,0,0.3794,0.3892,0.3947,0.398,0.4081,0.4106,0.415,0.422,0.426,0.4323,0.435,0.4418,0.4456,0.4508,0.4571,0.4574,0.4643,0.4661,0.4674,0.4672,0.4686,0.4685,0.4684,0.4707,0.4706,0.4706,0.4706,0,0.3797,0.3838,0.3931,0.3965,0.4014,0.4081,0.4128,0.4176,0.4239,0.4285,0.434,0.4382,0.4462,0.4514,0.4564,0.4622,0.4638,0.4668,0.4681,0.4663,0.466,0.4687,0.4688,0.4707,0.4707,0.4707,0.4707,0,0.3763,0.3827,0.3891,0.3981,0.4005,0.4037,0.4115,0.4152,0.4203,0.426,0.4278,0.4358,0.4423,0.4491,0.4579,0.4612,0.4669,0.4686,0.4644,0.4652,0.4661,0.466,0.4679,0.4686,0.4702,0.4702,0.4701,0,0.3761,0.3793,0.3887,0.3921,0.3963,0.4017,0.4058,0.4126,0.4167,0.4251,0.4277,0.4346,0.4404,0.4505,0.4572,0.464,0.4661,0.4663,0.4671,0.4653,0.4662,0.466,0.4664,0.466,0.4659,0.4659,0.4659,0,0.3751,0.3781,0.3837,0.3904,0.3951,0.4008,0.4067,0.4092,0.4172,0.4215,0.4281,0.4327,0.4417,0.4485,0.4561,0.4608,0.4647,0.4655,0.4662,0.4645,0.462,0.4635,0.4637,0.4655,0.4655,0.4655,0.4656,0.4656,0.3734,0.3766,0.3837,0.3898,0.395,0.4004,0.4042,0.4098,0.4154,0.4232,0.4269,0.4336,0.4408,0.4514,0.456,0.4614,0.4626,0.4635,0.4638,0.464,0.4636,0.4611,0.4628,0.4629,0.4629,0.4629,0.4629,0,0.3728,0.3776,0.3832,0.3912,0.396,0.3992,0.406,0.4098,0.4156,0.4219,0.4276,0.4353,0.4419,0.4492,0.4563,0.4593,0.4613,0.4609,0.4608,0.4619,0.4621,0.4608,0.4592,0.4592,0.4592,0.4592,0.4592,0.4592,0.373,0.3787,0.3826,0.391,0.3959,0.4024,0.406,0.4111,0.4161,0.4244,0.43,0.4346,0.4414,0.4491,0.4554,0.4574,0.4598,0.4589,0.4615,0.4615,0.4618,0.4621,0.461,0.4594,0.4594,0.4608,0.4608,0.4608]}]]